EW8073 Weather Reports


time (UTC)temp
C
wind
direction
speed
KPH
gust
KPH
rain 1hr
cm
rain 24hr
cm
rain mn
cm
humidity
%
barometer
mb
20260503211941 24 340 0.0 6.4 0.00 0.00 0.00 13 1010.8
20260503211435 24 263 0.0 1.6 0.00 0.00 0.00 13 1010.8
20260503210929 24 236 0.0 1.6 0.00 0.00 0.00 13 1010.8
20260503210423 24 187 0.0 0.0 0.00 0.00 0.00 13 1010.6
20260503205919 25 80 0.0 0.0 0.00 0.00 0.00 13 1010.8
20260503205411 25 80 0.0 11.3 0.00 0.00 0.00 14 1010.9
20260503204906 24 0 0.0 11.3 0.00 0.00 0.00 13 1011.0
20260503204400 24 327 0.0 1.6 0.00 0.00 0.00 13 1011.1
20260503203854 24 346 0.0 3.2 0.00 0.00 0.00 13 1011.2
20260503202841 24 275 0.0 0.0 0.00 0.00 0.00 13 1011.3
20260503202335 24 275 0.0 0.0 0.00 0.00 0.00 13 1011.5
20260503201323 23 245 0.0 1.6 0.00 0.00 0.00 13 1011.5
20260503200819 23 267 0.0 1.6 0.00 0.00 0.00 14 1011.7
20260503200313 23 280 0.0 8.0 0.00 0.00 0.00 13 1011.7
20260503195805 23 355 0.0 8.0 0.00 0.00 0.00 14 1011.7
20260503195300 23 306 0.0 6.4 0.00 0.00 0.00 13 1011.8
20260503194753 23 300 0.0 9.7 0.00 0.00 0.00 13 1011.8
20260503194247 23 336 4.8 19.3 0.00 0.00 0.00 13 1011.9
20260503193237 25 5 3.2 19.3 0.00 0.00 0.00 12 1011.9
20260503192737 24 283 1.6 19.3 0.00 0.00 0.00 13 1012.0
20260503192237 24 22 0.0 6.4 0.00 0.00 0.00 13 1012.2
20260503191739 24 5 0.0 6.4 0.00 0.00 0.00 13 1012.3
20260503191237 24 306 1.6 14.5 0.00 0.00 0.00 12 1012.4
20260503190738 24 317 3.2 14.5 0.00 0.00 0.00 12 1012.5
20260503190237 24 271 3.2 16.1 0.00 0.00 0.00 12 1012.5
20260503185733 24 315 3.2 16.1 0.00 0.00 0.00 13 1012.7
20260503184731 24 19 4.8 17.7 0.00 0.00 0.00 13 1012.6
20260503183732 24 15 1.6 14.5 0.00 0.00 0.00 12 1013.0
20260503183232 23 76 1.6 12.9 0.00 0.00 0.00 12 1013.1
20260503182732 23 217 1.6 8.0 0.00 0.00 0.00 12 1013.2
20260503182227 23 313 1.6 11.3 0.00 0.00 0.00 13 1013.3
20260503181228 23 239 0.0 4.8 0.00 0.00 0.00 13 1013.4
20260503180227 22 330 0.0 3.2 0.00 0.00 0.00 15 1013.7
20260503175727 22 5 0.0 3.2 0.00 0.00 0.00 16 1013.8
20260503175227 22 317 0.0 3.2 0.00 0.00 0.00 16 1013.9
20260503174727 22 252 0.0 0.0 0.00 0.00 0.00 17 1013.9
20260503174228 22 277 0.0 1.6 0.00 0.00 0.00 18 1014.0
20260503173723 21 263 0.0 4.8 0.00 0.00 0.00 17 1014.1
20260503173224 21 252 0.0 4.8 0.00 0.00 0.00 17 1014.1
20260503172724 21 245 0.0 3.2 0.00 0.00 0.00 18 1014.3
20260503172223 21 257 0.0 3.2 0.00 0.00 0.00 18 1014.3
20260503171724 21 254 0.0 0.0 0.00 0.00 0.00 19 1014.4
20260503171223 21 250 0.0 6.4 0.00 0.00 0.00 19 1014.4
20260503170225 21 251 0.0 11.3 0.00 0.00 0.00 20 1014.6
20260503160209 18 261 0.0 3.2 0.00 0.00 0.00 26 1015.1
20260503150645 16 248 0.0 1.6 0.00 0.00 0.00 28 1015.4
20260503130926 10 239 0.0 0.0 0.00 0.00 0.00 40 1015.5
20260503130421 10 241 0.0 0.0 0.00 0.00 0.00 40 1015.4
20260503110703 9 207 0.0 0.0 0.00 0.00 0.00 41 1014.7
20260503110157 9 207 0.0 0.0 0.00 0.00 0.00 41 1014.8
20260503081540 8 120 0.0 0.0 0.00 0.00 0.00 37 1015.3
20260503081040 8 120 0.0 0.0 0.00 0.00 0.00 37 1015.3
20260503072034 10 120 0.0 0.0 0.00 0.00 0.00 36 1015.8
20260503071531 10 120 0.0 0.0 0.00 0.00 0.00 36 1015.8
20260503071029 10 120 0.0 0.0 0.00 0.00 0.00 36 1015.8
20260503055001 11 119 0.0 0.0 0.00 0.00 0.00 31 1015.8
20260503054456 11 119 0.0 0.0 0.00 0.00 0.00 31 1015.7
20260503053950 11 119 0.0 0.0 0.00 0.00 0.00 31 1015.8
20260503053442 12 119 0.0 0.0 0.00 0.00 0.00 31 1015.8
20260503052943 12 119 0.0 0.0 0.00 0.00 0.00 30 1015.8
20260503052441 12 119 0.0 0.0 0.00 0.00 0.00 30 1015.8
20260503051941 12 119 0.0 0.0 0.00 0.00 0.00 30 1015.8
20260503051440 12 119 0.0 0.0 0.00 0.00 0.00 29 1015.8
20260503050438 13 119 0.0 0.0 0.00 0.00 0.00 29 1015.8
20260503045939 13 119 0.0 0.0 0.00 0.00 0.00 29 1015.7
20260503045439 13 119 0.0 0.0 0.00 0.00 0.00 29 1015.7
20260503044941 13 119 0.0 0.0 0.00 0.00 0.00 29 1015.8
20260503043937 13 119 0.0 0.0 0.00 0.00 0.00 29 1015.8
20260503042936 13 119 0.0 0.0 0.00 0.00 0.00 28 1015.8
20260503042436 13 119 0.0 0.0 0.00 0.00 0.00 28 1015.8
20260503041432 13 119 0.0 0.0 0.00 0.00 0.00 28 1015.8
20260503040432 14 119 0.0 0.0 0.00 0.00 0.00 27 1015.8
20260503035432 14 119 0.0 0.0 0.00 0.00 0.00 26 1015.9
20260503034932 15 119 0.0 0.0 0.00 0.00 0.00 25 1015.8
20260503034432 15 119 0.0 0.0 0.00 0.00 0.00 24 1015.8
20260503033432 15 119 0.0 0.0 0.00 0.00 0.00 22 1015.8
20260503032432 15 119 0.0 0.0 0.00 0.00 0.00 20 1015.7
20260503031933 15 119 0.0 0.0 0.00 0.00 0.00 19 1015.7
20260503031432 16 119 0.0 0.0 0.00 0.00 0.00 18 1015.7
20260503030932 16 119 0.0 0.0 0.00 0.00 0.00 18 1015.5
20260503030434 16 119 0.0 0.0 0.00 0.00 0.00 17 1015.5
20260503025932 16 119 0.0 0.0 0.00 0.00 0.00 17 1015.7
20260503025431 16 119 0.0 0.0 0.00 0.00 0.00 16 1015.5
20260503024924 16 119 0.0 0.0 0.00 0.00 0.00 16 1015.5
20260503024418 17 119 0.0 0.0 0.00 0.00 0.00 15 1015.5
20260503023911 17 119 0.0 0.0 0.00 0.00 0.00 15 1015.4
20260503023407 17 119 0.0 0.0 0.00 0.00 0.00 14 1015.4
20260503021848 18 119 0.0 1.6 0.00 0.00 0.00 14 1015.2
20260503021342 18 119 0.0 0.0 0.00 0.00 0.00 13 1015.2
20260503020836 18 119 0.0 0.0 0.00 0.00 0.00 13 1015.1
20260503020331 19 119 0.0 1.6 0.00 0.00 0.00 12 1015.1
20260503015825 19 119 0.0 1.6 0.00 0.00 0.00 12 1015.1
20260503015318 19 119 0.0 1.6 0.00 0.00 0.00 12 1015.1
20260503014812 20 119 0.0 0.0 0.00 0.00 0.00 11 1015.1
20260503013800 20 119 0.0 0.0 0.00 0.00 0.00 11 1015.1
20260503012747 20 119 0.0 0.0 0.00 0.00 0.00 11 1015.0
20260503012243 20 119 0.0 0.0 0.00 0.00 0.00 11 1015.0
20260503011736 20 119 0.0 0.0 0.00 0.00 0.00 10 1015.0
20260503010723 20 119 0.0 0.0 0.00 0.00 0.00 10 1015.0
20260503010218 20 119 0.0 0.0 0.00 0.00 0.00 10 1014.8
20260503005712 21 119 0.0 0.0 0.00 0.00 0.00 10 1014.7
20260503005206 21 119 0.0 1.6 0.00 0.00 0.00 9 1014.8
20260503004700 21 119 0.0 3.2 0.00 0.00 0.00 9 1014.7
20260503004155 21 119 0.0 3.2 0.00 0.00 0.00 9 1014.8
20260503003649 22 121 0.0 3.2 0.00 0.00 0.00 9 1015.0
20260503002636 22 120 0.0 0.0 0.00 0.00 0.00 9 1015.0
20260503002130 22 120 0.0 3.2 0.00 0.00 0.00 8 1015.0
20260503001624 22 118 0.0 1.6 0.00 0.00 0.00 8 1015.1
20260503001118 22 117 0.0 1.6 0.00 0.00 0.00 6 1015.1
20260503000611 22 117 0.0 1.6 0.00 0.00 0.00 7 1015.1
20260503000108 22 117 0.0 1.6 0.00 0.00 0.00 8 1015.2
20260502235601 23 117 0.0 1.6 0.00 0.00 0.00 7 1015.2
20260502235054 23 116 0.0 0.0 0.00 0.00 0.00 7 1015.3
20260502234042 23 117 0.0 1.6 0.00 0.00 0.00 7 1015.4
20260502233535 23 109 0.0 1.6 0.00 0.00 0.00 8 1015.4
20260502233030 23 109 0.0 0.0 0.00 0.00 0.00 7 1015.4
20260502232017 23 105 0.0 0.0 0.00 0.00 0.00 7 1015.5
20260502231511 23 106 0.0 0.0 0.00 0.00 0.00 7 1015.4
20260502231005 24 105 0.0 3.2 0.00 0.00 0.00 6 1015.5
20260502230501 23 105 0.0 3.2 0.00 0.00 0.00 7 1015.5
20260502225955 23 109 0.0 0.0 0.00 0.00 0.00 7 1015.5
20260502225449 24 111 0.0 1.6 0.00 0.00 0.00 8 1015.5
20260502224942 23 111 0.0 4.8 0.00 0.00 0.00 9 1015.7
20260502224437 23 111 0.0 4.8 0.00 0.00 0.00 8 1015.7
20260502223929 23 113 0.0 4.8 0.00 0.00 0.00 8 1015.7
20260502223423 23 113 0.0 0.0 0.00 0.00 0.00 8 1015.7
20260502222918 23 113 0.0 4.8 0.00 0.00 0.00 7 1015.7
20260502222411 23 113 0.0 4.8 0.00 0.00 0.00 6 1015.9
20260502221905 23 117 0.0 0.0 0.00 0.00 0.00 7 1015.9
20260502221359 24 118 0.0 6.4 0.00 0.00 0.00 8 1016.0
20260502215843 24 116 0.0 3.2 0.00 0.00 0.00 7 1016.4
20260502215336 24 115 0.0 1.6 0.00 0.00 0.00 8 1016.5
20260502214831 25 80 0.0 0.0 0.00 0.00 0.00 8 1016.6
20260502214325 25 60 0.0 0.0 0.00 0.00 0.00 8 1016.7
20260502213819 23 60 0.0 4.8 0.00 0.00 0.00 9 1016.8
20260502213312 23 59 1.6 8.0 0.00 0.00 0.00 9 1016.8
20260502212805 23 78 1.6 8.0 0.00 0.00 0.00 10 1016.9
20260502212300 23 52 0.0 6.4 0.00 0.00 0.00 10 1017.1